NORTHERN NASSAU  -  Coastal Flood Statement Coastal Flood Statement        SOUTHERN NASSAU  -  Coastal Flood Statement Coastal Flood Statement      

Active alerts

Northern Nassau
  Details for Northern Nassau Coastal Flood Statement
Southern Nassau
  Details for Southern Nassau Coastal Flood Statement


WXM80 ListenWXM80 Stop

You find our weather info also at:

UK Metoffice

WeatherCloud

Weather Underground

Northeastern Weather Network

AWEKAS

Citizen Weather Observer Program (CWOP)

HAMweather, WeatherForYou, PWS Weather


Weather Underground History page Text

Daily Summary for October 20, 2017 Units:  Both    English   Metric
« Previous Day
Next Day »
Daily Weekly Monthly Yearly Custom
  High: Low: Average:
Temperature: 73.5 °F /  23.1 °C 53.9 °F /  12.2 °C 62.2 °F /  16.8 °C
Dew Point: 52.6 °F /  11.4 °C 41.7 °F /  5.4 °C 49 °F /  9.4 °C
Humidity: 87 % 32 % 64 %
Wind Speed: 7.4 mph /  11.9 km/h - 1.8 mph /  2.9 km/h
Wind Gust: 12.7 mph /  20.4 km/h - -
Wind:- - West
Pressure: 30.20 in /  1022.6 hPa 29.96 in /  1014.4 hPa -
Precipitation: 0.00 in /  0 mm    
Historical Graphs
 
 
Tabular Data for October 20, 2017
Time Temperature Dew Point Pressure Wind Wind Speed Wind Gust Humidity Rainfall Rate (Hourly)
00:04 59.3 °F /  15.2 °C 51.0 °F /  10.6 °C 30.05 in /  1017.5 hPa South 1.6 mph /  2.6 km/h 5.8 mph /  9.3 km/h 74 % 0.00 in /  0 mm
00:09 59.3 °F /  15.2 °C 51.0 °F /  10.6 °C 30.06 in /  1017.8 hPa SW 2.6 mph /  4.2 km/h 4.0 mph /  6.4 km/h 74 % 0.00 in /  0 mm
00:14 59.2 °F /  15.1 °C 50.9 °F /  10.5 °C 30.05 in /  1017.5 hPa SW 0.2 mph /  0.3 km/h 3.5 mph /  5.6 km/h 74 % 0.00 in /  0 mm
00:19 59.2 °F /  15.1 °C 50.9 °F /  10.5 °C 30.05 in /  1017.5 hPa SW 1.3 mph /  2.1 km/h 3.0 mph /  4.8 km/h 74 % 0.00 in /  0 mm
00:24 59.1 °F /  15.1 °C 50.8 °F /  10.4 °C 30.06 in /  1017.8 hPa WSW 2.0 mph /  3.2 km/h 3.5 mph /  5.6 km/h 74 % 0.00 in /  0 mm
00:29 59.1 °F /  15.1 °C 50.5 °F /  10.3 °C 30.05 in /  1017.5 hPa SW 0.9 mph /  1.4 km/h 6.9 mph /  11.1 km/h 73 % 0.00 in /  0 mm
00:34 59.1 °F /  15.1 °C 50.5 °F /  10.3 °C 30.05 in /  1017.5 hPa WSW 2.4 mph /  3.9 km/h 4.6 mph /  7.4 km/h 73 % 0.00 in /  0 mm
00:39 59.1 °F /  15.1 °C 50.8 °F /  10.4 °C 30.05 in /  1017.5 hPa SSW 1.4 mph /  2.3 km/h 3.5 mph /  5.6 km/h 74 % 0.00 in /  0 mm
00:45 59.0 °F /  15 °C 50.4 °F /  10.2 °C 30.05 in /  1017.5 hPa SW 0.7 mph /  1.1 km/h 3.5 mph /  5.6 km/h 73 % 0.00 in /  0 mm
00:50 59.0 °F /  15 °C 50.4 °F /  10.2 °C 30.06 in /  1017.8 hPa SW 1.0 mph /  1.6 km/h 1.0 mph /  1.6 km/h 73 % 0.00 in /  0 mm
00:55 59.0 °F /  15 °C 50.4 °F /  10.2 °C 30.05 in /  1017.5 hPa West 0.7 mph /  1.1 km/h 3.5 mph /  5.6 km/h 73 % 0.00 in /  0 mm
01:00 59.0 °F /  15 °C 50.4 °F /  10.2 °C 30.05 in /  1017.5 hPa SW 0.6 mph /  1 km/h 3.5 mph /  5.6 km/h 73 % 0.00 in /  0 mm
01:05 59.0 °F /  15 °C 50.4 °F /  10.2 °C 30.05 in /  1017.5 hPa WSW 1.4 mph /  2.3 km/h 2.3 mph /  3.7 km/h 73 % 0.00 in /  0 mm
01:10 59.0 °F /  15 °C 50.4 °F /  10.2 °C 30.05 in /  1017.5 hPa SW 3.5 mph /  5.6 km/h 6.9 mph /  11.1 km/h 73 % 0.00 in /  0 mm
01:15 59.0 °F /  15 °C 50.4 °F /  10.2 °C 30.05 in /  1017.5 hPa SW 3.0 mph /  4.8 km/h 5.8 mph /  9.3 km/h 73 % 0.00 in /  0 mm
01:17 59.0 °F /  15 °C 50.4 °F /  10.2 °C 30.05 in /  1017.5 hPa WSW 1.2 mph /  1.9 km/h 4.0 mph /  6.4 km/h 73 % 0.00 in /  0 mm
01:22 59.0 °F /  15 °C 50.4 °F /  10.2 °C 30.05 in /  1017.5 hPa SW 0.5 mph /  0.8 km/h 2.3 mph /  3.7 km/h 73 % 0.00 in /  0 mm
01:27 59.1 °F /  15.1 °C 50.5 °F /  10.3 °C 30.05 in /  1017.5 hPa WSW 1.0 mph /  1.6 km/h 2.3 mph /  3.7 km/h 73 % 0.00 in /  0 mm
01:32 59.0 °F /  15 °C 50.4 °F /  10.2 °C 30.05 in /  1017.5 hPa West 1.4 mph /  2.3 km/h 3.5 mph /  5.6 km/h 73 % 0.00 in /  0 mm
01:37 59.1 °F /  15.1 °C 50.5 °F /  10.3 °C 30.05 in /  1017.5 hPa WSW 0.7 mph /  1.1 km/h 1.2 mph /  1.9 km/h 73 % 0.00 in /  0 mm
01:43 59.1 °F /  15.1 °C 50.5 °F /  10.3 °C 30.05 in /  1017.5 hPa SW 0.4 mph /  0.6 km/h 2.3 mph /  3.7 km/h 73 % 0.00 in /  0 mm
01:48 59.0 °F /  15 °C 50.4 °F /  10.2 °C 30.05 in /  1017.5 hPa WSW 0.4 mph /  0.6 km/h 2.3 mph /  3.7 km/h 73 % 0.00 in /  0 mm
01:53 59.0 °F /  15 °C 50.7 °F /  10.4 °C 30.05 in /  1017.5 hPa WSW 0.2 mph /  0.3 km/h 2.3 mph /  3.7 km/h 74 % 0.00 in /  0 mm
01:58 59.0 °F /  15 °C 50.7 °F /  10.4 °C 30.05 in /  1017.5 hPa Calm     74 % 0.00 in /  0 mm
02:03 58.9 °F /  14.9 °C 50.6 °F /  10.3 °C 30.05 in /  1017.5 hPa SW 0.1 mph /  0.2 km/h 2.3 mph /  3.7 km/h 74 % 0.00 in /  0 mm
02:08 58.8 °F /  14.9 °C 50.5 °F /  10.3 °C 30.05 in /  1017.5 hPa Calm     74 % 0.00 in /  0 mm
02:13 58.7 °F /  14.8 °C 50.1 °F /  10.1 °C 30.05 in /  1017.5 hPa Calm   1.2 mph /  1.9 km/h 73 % 0.00 in /  0 mm
02:18 58.5 °F /  14.7 °C 50.2 °F /  10.1 °C 30.05 in /  1017.5 hPa Calm   1.2 mph /  1.9 km/h 74 % 0.00 in /  0 mm
02:23 58.4 °F /  14.7 °C 50.1 °F /  10.1 °C 30.05 in /  1017.5 hPa WSW 0.1 mph /  0.2 km/h 1.2 mph /  1.9 km/h 74 % 0.00 in /  0 mm
02:28 58.2 °F /  14.6 °C 50.3 °F /  10.2 °C 30.05 in /  1017.5 hPa Calm     75 % 0.00 in /  0 mm
02:33 58.1 °F /  14.5 °C 50.2 °F /  10.1 °C 30.05 in /  1017.5 hPa WSW 0.3 mph /  0.5 km/h 1.2 mph /  1.9 km/h 75 % 0.00 in /  0 mm
02:38 57.9 °F /  14.4 °C 50.4 °F /  10.2 °C 30.05 in /  1017.5 hPa Calm     76 % 0.00 in /  0 mm
02:43 57.7 °F /  14.3 °C 50.5 °F /  10.3 °C 30.05 in /  1017.5 hPa WSW 0.7 mph /  1.1 km/h 1.2 mph /  1.9 km/h 77 % 0.00 in /  0 mm
02:48 57.3 °F /  14.1 °C 50.5 °F /  10.3 °C 30.05 in /  1017.5 hPa WSW 0.4 mph /  0.6 km/h 1.2 mph /  1.9 km/h 78 % 0.00 in /  0 mm
02:53 57.1 °F /  13.9 °C 50.3 °F /  10.2 °C 30.05 in /  1017.5 hPa WSW 0.4 mph /  0.6 km/h 1.0 mph /  1.6 km/h 78 % 0.00 in /  0 mm
02:58 56.9 °F /  13.8 °C 50.5 °F /  10.3 °C 30.05 in /  1017.5 hPa Calm   1.2 mph /  1.9 km/h 79 % 0.00 in /  0 mm
03:03 56.7 °F /  13.7 °C 50.3 °F /  10.2 °C 30.05 in /  1017.5 hPa WSW 0.3 mph /  0.5 km/h 1.2 mph /  1.9 km/h 79 % 0.00 in /  0 mm
03:08 56.6 °F /  13.7 °C 50.5 °F /  10.3 °C 30.05 in /  1017.5 hPa WSW 0.2 mph /  0.3 km/h 1.2 mph /  1.9 km/h 80 % 0.00 in /  0 mm
03:13 56.4 °F /  13.6 °C 50.3 °F /  10.2 °C 30.05 in /  1017.5 hPa WSW 0.6 mph /  1 km/h 2.0 mph /  3.2 km/h 80 % 0.00 in /  0 mm
03:18 56.3 °F /  13.5 °C 50.5 °F /  10.3 °C 30.05 in /  1017.5 hPa WSW 0.5 mph /  0.8 km/h 2.3 mph /  3.7 km/h 81 % 0.00 in /  0 mm
03:24 56.2 °F /  13.4 °C 50.8 °F /  10.4 °C 30.04 in /  1017.2 hPa SW 1.4 mph /  2.3 km/h 2.3 mph /  3.7 km/h 82 % 0.00 in /  0 mm
03:29 56.1 °F /  13.4 °C 50.7 °F /  10.4 °C 30.04 in /  1017.2 hPa SW 0.4 mph /  0.6 km/h 2.3 mph /  3.7 km/h 82 % 0.00 in /  0 mm
03:34 56.1 °F /  13.4 °C 50.7 °F /  10.4 °C 30.04 in /  1017.2 hPa SW 0.3 mph /  0.5 km/h 1.2 mph /  1.9 km/h 82 % 0.00 in /  0 mm
03:39 56.0 °F /  13.3 °C 50.9 °F /  10.5 °C 30.05 in /  1017.5 hPa SW 0.7 mph /  1.1 km/h 2.3 mph /  3.7 km/h 83 % 0.00 in /  0 mm
03:44 56.0 °F /  13.3 °C 50.9 °F /  10.5 °C 30.04 in /  1017.2 hPa SW 0.4 mph /  0.6 km/h 1.2 mph /  1.9 km/h 83 % 0.00 in /  0 mm
03:49 56.0 °F /  13.3 °C 50.9 °F /  10.5 °C 30.04 in /  1017.2 hPa Calm   1.2 mph /  1.9 km/h 83 % 0.00 in /  0 mm
03:54 55.9 °F /  13.3 °C 50.8 °F /  10.4 °C 30.05 in /  1017.5 hPa Calm     83 % 0.00 in /  0 mm
03:59 56.0 °F /  13.3 °C 51.2 °F /  10.7 °C 30.04 in /  1017.2 hPa WSW 0.6 mph /  1 km/h 2.0 mph /  3.2 km/h 84 % 0.00 in /  0 mm
04:04 56.0 °F /  13.3 °C 51.2 °F /  10.7 °C 30.04 in /  1017.2 hPa WSW 1.1 mph /  1.8 km/h 3.5 mph /  5.6 km/h 84 % 0.00 in /  0 mm
04:09 55.9 °F /  13.3 °C 51.5 °F /  10.8 °C 30.05 in /  1017.5 hPa WSW 1.9 mph /  3.1 km/h 5.0 mph /  8 km/h 85 % 0.00 in /  0 mm
04:14 56.0 °F /  13.3 °C 51.9 °F /  11.1 °C 30.04 in /  1017.2 hPa SW 1.7 mph /  2.7 km/h 3.5 mph /  5.6 km/h 86 % 0.00 in /  0 mm
04:19 56.0 °F /  13.3 °C 51.9 °F /  11.1 °C 30.05 in /  1017.5 hPa NW 0.8 mph /  1.3 km/h 2.0 mph /  3.2 km/h 86 % 0.00 in /  0 mm
04:24 56.1 °F /  13.4 °C 52.3 °F /  11.3 °C 30.05 in /  1017.5 hPa WSW 0.8 mph /  1.3 km/h 2.0 mph /  3.2 km/h 87 % 0.00 in /  0 mm
04:29 56.2 °F /  13.4 °C 52.4 °F /  11.3 °C 30.05 in /  1017.5 hPa SSE 1.6 mph /  2.6 km/h 3.5 mph /  5.6 km/h 87 % 0.00 in /  0 mm
04:30 56.2 °F /  13.4 °C 52.4 °F /  11.3 °C 30.05 in /  1017.5 hPa South 0.7 mph /  1.1 km/h 3.5 mph /  5.6 km/h 87 % 0.00 in /  0 mm
04:35 56.3 °F /  13.5 °C 52.5 °F /  11.4 °C 30.05 in /  1017.5 hPa SSW 2.6 mph /  4.2 km/h 3.5 mph /  5.6 km/h 87 % 0.00 in /  0 mm
04:40 56.4 °F /  13.6 °C 52.6 °F /  11.4 °C 30.05 in /  1017.5 hPa SW 2.8 mph /  4.5 km/h 4.6 mph /  7.4 km/h 87 % 0.00 in /  0 mm
04:45 56.5 °F /  13.6 °C 52.4 °F /  11.3 °C 30.05 in /  1017.5 hPa WSW 2.6 mph /  4.2 km/h 5.0 mph /  8 km/h 86 % 0.00 in /  0 mm
04:50 56.5 °F /  13.6 °C 52.4 °F /  11.3 °C 30.05 in /  1017.5 hPa WSW 1.3 mph /  2.1 km/h 3.5 mph /  5.6 km/h 86 % 0.00 in /  0 mm
04:55 56.7 °F /  13.7 °C 52.6 °F /  11.4 °C 30.05 in /  1017.5 hPa SW 4.6 mph /  7.4 km/h 6.9 mph /  11.1 km/h 86 % 0.00 in /  0 mm
05:00 56.8 °F /  13.8 °C 52.3 °F /  11.3 °C 30.05 in /  1017.5 hPa SW 2.4 mph /  3.9 km/h 3.5 mph /  5.6 km/h 85 % 0.00 in /  0 mm
05:05 56.9 °F /  13.8 °C 52.4 °F /  11.3 °C 30.06 in /  1017.8 hPa West 1.5 mph /  2.4 km/h 3.0 mph /  4.8 km/h 85 % 0.00 in /  0 mm
05:10 57.1 °F /  13.9 °C 52.6 °F /  11.4 °C 30.06 in /  1017.8 hPa SW 3.1 mph /  5 km/h 4.6 mph /  7.4 km/h 85 % 0.00 in /  0 mm
05:15 57.2 °F /  14 °C 52.4 °F /  11.3 °C 30.06 in /  1017.8 hPa WSW 0.7 mph /  1.1 km/h 6.9 mph /  11.1 km/h 84 % 0.00 in /  0 mm
05:20 57.4 °F /  14.1 °C 52.3 °F /  11.3 °C 30.06 in /  1017.8 hPa WSW 2.4 mph /  3.9 km/h 10.4 mph /  16.7 km/h 83 % 0.00 in /  0 mm
05:25 57.6 °F /  14.2 °C 52.1 °F /  11.2 °C 30.10 in /  1019.2 hPa WSW 3.1 mph /  5 km/h 4.0 mph /  6.4 km/h 82 % 0.00 in /  0 mm
05:30 57.8 °F /  14.3 °C 52.0 °F /  11.1 °C 30.06 in /  1017.8 hPa WSW 0.8 mph /  1.3 km/h 4.6 mph /  7.4 km/h 81 % 0.00 in /  0 mm
05:35 58.0 °F /  14.4 °C 51.9 °F /  11.1 °C 30.07 in /  1018.2 hPa West 3.1 mph /  5 km/h 3.5 mph /  5.6 km/h 80 % 0.00 in /  0 mm
05:40 58.2 °F /  14.6 °C 51.4 °F /  10.8 °C 30.07 in /  1018.2 hPa WSW 2.8 mph /  4.5 km/h 3.5 mph /  5.6 km/h 78 % 0.00 in /  0 mm
05:45 58.4 °F /  14.7 °C 51.6 °F /  10.9 °C 30.07 in /  1018.2 hPa WSW 0.5 mph /  0.8 km/h 3.5 mph /  5.6 km/h 78 % 0.00 in /  0 mm
05:50 58.6 °F /  14.8 °C 52.1 °F /  11.2 °C 30.07 in /  1018.2 hPa WSW 2.9 mph /  4.7 km/h 5.8 mph /  9.3 km/h 79 % 0.00 in /  0 mm
05:51 58.6 °F /  14.8 °C 52.1 °F /  11.2 °C 30.07 in /  1018.2 hPa WSW 2.0 mph /  3.2 km/h 6.0 mph /  9.7 km/h 79 % 0.00 in /  0 mm
05:56 58.8 °F /  14.9 °C 52.3 °F /  11.3 °C 30.08 in /  1018.5 hPa WSW 1.0 mph /  1.6 km/h 4.6 mph /  7.4 km/h 79 % 0.00 in /  0 mm
06:01 58.9 °F /  14.9 °C 52.4 °F /  11.3 °C 30.08 in /  1018.5 hPa West 2.0 mph /  3.2 km/h 6.9 mph /  11.1 km/h 79 % 0.00 in /  0 mm
06:05 58.9 °F /  14.9 °C 52.1 °F /  11.2 °C 30.08 in /  1018.5 hPa WSW 0.7 mph /  1.1 km/h 3.5 mph /  5.6 km/h 78 % 0.00 in /  0 mm
06:11 58.9 °F /  14.9 °C 52.1 °F /  11.2 °C 30.08 in /  1018.5 hPa West 3.0 mph /  4.8 km/h 8.0 mph /  12.9 km/h 78 % 0.00 in /  0 mm
06:16 58.9 °F /  14.9 °C 51.7 °F /  10.9 °C 30.08 in /  1018.5 hPa WNW 3.0 mph /  4.8 km/h 8.0 mph /  12.9 km/h 77 % 0.00 in /  0 mm
06:21 58.8 °F /  14.9 °C 51.6 °F /  10.9 °C 30.08 in /  1018.5 hPa West 3.0 mph /  4.8 km/h 7.0 mph /  11.3 km/h 77 % 0.00 in /  0 mm
06:26 58.9 °F /  14.9 °C 51.7 °F /  10.9 °C 30.08 in /  1018.5 hPa West 1.0 mph /  1.6 km/h 6.0 mph /  9.7 km/h 77 % 0.00 in /  0 mm
06:31 58.9 °F /  14.9 °C 51.7 °F /  10.9 °C 30.08 in /  1018.5 hPa West 1.0 mph /  1.6 km/h 4.0 mph /  6.4 km/h 77 % 0.00 in /  0 mm
06:36 58.9 °F /  14.9 °C 51.3 °F /  10.7 °C 30.08 in /  1018.5 hPa WSW 1.6 mph /  2.6 km/h 5.8 mph /  9.3 km/h 76 % 0.00 in /  0 mm
06:41 59.0 °F /  15 °C 51.1 °F /  10.6 °C 30.08 in /  1018.5 hPa West 2.0 mph /  3.2 km/h 9.0 mph /  14.5 km/h 75 % 0.00 in /  0 mm
06:46 59.0 °F /  15 °C 51.1 °F /  10.6 °C 30.08 in /  1018.5 hPa West 3.0 mph /  4.8 km/h 7.0 mph /  11.3 km/h 75 % 0.00 in /  0 mm
06:51 59.0 °F /  15 °C 50.7 °F /  10.4 °C 30.08 in /  1018.5 hPa West 2.0 mph /  3.2 km/h 5.0 mph /  8 km/h 74 % 0.00 in /  0 mm
06:56 59.1 °F /  15.1 °C 50.8 °F /  10.4 °C 30.08 in /  1018.5 hPa WNW 0.9 mph /  1.4 km/h 4.6 mph /  7.4 km/h 74 % 0.00 in /  0 mm
07:01 59.1 °F /  15.1 °C 50.8 °F /  10.4 °C 30.08 in /  1018.5 hPa West 2.7 mph /  4.3 km/h 3.5 mph /  5.6 km/h 74 % 0.00 in /  0 mm
07:06 59.1 °F /  15.1 °C 50.8 °F /  10.4 °C 30.09 in /  1018.8 hPa WSW 1.9 mph /  3.1 km/h 6.9 mph /  11.1 km/h 74 % 0.00 in /  0 mm
07:11 59.1 °F /  15.1 °C 51.2 °F /  10.7 °C 30.09 in /  1018.8 hPa NW 2.4 mph /  3.9 km/h 6.9 mph /  11.1 km/h 75 % 0.00 in /  0 mm
07:16 59.1 °F /  15.1 °C 50.8 °F /  10.4 °C 30.09 in /  1018.8 hPa WNW 3.3 mph /  5.3 km/h 6.0 mph /  9.7 km/h 74 % 0.00 in /  0 mm
07:18 59.0 °F /  15 °C 50.7 °F /  10.4 °C 30.09 in /  1018.8 hPa WSW 3.0 mph /  4.8 km/h 5.8 mph /  9.3 km/h 74 % 0.00 in /  0 mm
07:23 59.0 °F /  15 °C 51.1 °F /  10.6 °C 30.09 in /  1018.8 hPa WNW 2.3 mph /  3.7 km/h 4.6 mph /  7.4 km/h 75 % 0.00 in /  0 mm
07:28 59.0 °F /  15 °C 51.1 °F /  10.6 °C 30.09 in /  1018.8 hPa WSW 3.8 mph /  6.1 km/h 5.8 mph /  9.3 km/h 75 % 0.00 in /  0 mm
07:33 59.0 °F /  15 °C 51.1 °F /  10.6 °C 30.10 in /  1019.2 hPa West 3.8 mph /  6.1 km/h 5.8 mph /  9.3 km/h 75 % 0.00 in /  0 mm
07:38 59.0 °F /  15 °C 51.1 °F /  10.6 °C 30.10 in /  1019.2 hPa WSW 2.3 mph /  3.7 km/h 3.5 mph /  5.6 km/h 75 % 0.00 in /  0 mm
07:43 59.0 °F /  15 °C 51.1 °F /  10.6 °C 30.10 in /  1019.2 hPa WNW 2.4 mph /  3.9 km/h 3.5 mph /  5.6 km/h 75 % 0.00 in /  0 mm
07:48 59.1 °F /  15.1 °C 51.2 °F /  10.7 °C 30.11 in /  1019.5 hPa WSW 2.6 mph /  4.2 km/h 6.9 mph /  11.1 km/h 75 % 0.00 in /  0 mm
07:53 59.1 °F /  15.1 °C 51.2 °F /  10.7 °C 30.11 in /  1019.5 hPa WNW 2.5 mph /  4 km/h 4.6 mph /  7.4 km/h 75 % 0.00 in /  0 mm
07:58 59.2 °F /  15.1 °C 51.3 °F /  10.7 °C 30.11 in /  1019.5 hPa WNW 2.2 mph /  3.5 km/h 5.8 mph /  9.3 km/h 75 % 0.00 in /  0 mm
08:03 59.3 °F /  15.2 °C 51.4 °F /  10.8 °C 30.12 in /  1019.9 hPa WSW 3.8 mph /  6.1 km/h 6.9 mph /  11.1 km/h 75 % 0.00 in /  0 mm
08:08 59.3 °F /  15.2 °C 51.4 °F /  10.8 °C 30.11 in /  1019.5 hPa West 3.9 mph /  6.3 km/h 5.8 mph /  9.3 km/h 75 % 0.00 in /  0 mm
08:13 59.4 °F /  15.2 °C 51.1 °F /  10.6 °C 30.12 in /  1019.9 hPa West 3.8 mph /  6.1 km/h 9.2 mph /  14.8 km/h 74 % 0.00 in /  0 mm
08:18 59.4 °F /  15.2 °C 51.5 °F /  10.8 °C 30.12 in /  1019.9 hPa WNW 1.6 mph /  2.6 km/h 5.0 mph /  8 km/h 75 % 0.00 in /  0 mm
08:23 59.5 °F /  15.3 °C 51.2 °F /  10.7 °C 30.12 in /  1019.9 hPa WNW 5.0 mph /  8 km/h 9.2 mph /  14.8 km/h 74 % 0.00 in /  0 mm
08:26 59.5 °F /  15.3 °C 50.8 °F /  10.4 °C 30.12 in /  1019.9 hPa West 4.8 mph /  7.7 km/h 9.2 mph /  14.8 km/h 73 % 0.00 in /  0 mm
08:32 59.6 °F /  15.3 °C 50.6 °F /  10.3 °C 30.12 in /  1019.9 hPa WNW 4.0 mph /  6.4 km/h 6.9 mph /  11.1 km/h 72 % 0.00 in /  0 mm
08:37 59.6 °F /  15.3 °C 50.2 °F /  10.1 °C 30.12 in /  1019.9 hPa West 3.3 mph /  5.3 km/h 9.2 mph /  14.8 km/h 71 % 0.00 in /  0 mm
08:42 59.8 °F /  15.4 °C 50.4 °F /  10.2 °C 30.12 in /  1019.9 hPa WNW 6.0 mph /  9.7 km/h 8.0 mph /  12.9 km/h 71 % 0.00 in /  0 mm
08:47 59.9 °F /  15.5 °C 50.5 °F /  10.3 °C 30.13 in /  1020.2 hPa WNW 1.3 mph /  2.1 km/h 4.6 mph /  7.4 km/h 71 % 0.00 in /  0 mm
08:52 60.0 °F /  15.6 °C 50.6 °F /  10.3 °C 30.13 in /  1020.2 hPa NNW 1.1 mph /  1.8 km/h 4.6 mph /  7.4 km/h 71 % 0.00 in /  0 mm
08:57 60.1 °F /  15.6 °C 50.7 °F /  10.4 °C 30.13 in /  1020.2 hPa West 1.8 mph /  2.9 km/h 6.9 mph /  11.1 km/h 71 % 0.00 in /  0 mm
09:02 60.2 °F /  15.7 °C 50.8 °F /  10.4 °C 30.13 in /  1020.2 hPa WNW 3.1 mph /  5 km/h 5.8 mph /  9.3 km/h 71 % 0.00 in /  0 mm
09:07 60.3 °F /  15.7 °C 50.9 °F /  10.5 °C 30.13 in /  1020.2 hPa NW 2.6 mph /  4.2 km/h 5.8 mph /  9.3 km/h 71 % 0.00 in /  0 mm
09:12 60.4 °F /  15.8 °C 50.2 °F /  10.1 °C 30.14 in /  1020.5 hPa WSW 1.8 mph /  2.9 km/h 5.0 mph /  8 km/h 69 % 0.00 in /  0 mm
09:17 60.5 °F /  15.8 °C 49.9 °F /  9.9 °C 30.14 in /  1020.5 hPa West 2.1 mph /  3.4 km/h 8.1 mph /  13 km/h 68 % 0.00 in /  0 mm
09:18 60.5 °F /  15.8 °C 49.9 °F /  9.9 °C 30.14 in /  1020.5 hPa WNW 3.8 mph /  6.1 km/h 6.9 mph /  11.1 km/h 68 % 0.00 in /  0 mm
09:23 60.6 °F /  15.9 °C 49.6 °F /  9.8 °C 30.14 in /  1020.5 hPa WNW 5.8 mph /  9.3 km/h 11.5 mph /  18.5 km/h 67 % 0.00 in /  0 mm
09:28 60.7 °F /  15.9 °C 48.9 °F /  9.4 °C 30.14 in /  1020.5 hPa WNW 3.1 mph /  5 km/h 6.0 mph /  9.7 km/h 65 % 0.00 in /  0 mm
09:33 60.9 °F /  16.1 °C 48.6 °F /  9.2 °C 30.14 in /  1020.5 hPa West 5.3 mph /  8.5 km/h 11.5 mph /  18.5 km/h 64 % 0.00 in /  0 mm
09:38 61.2 °F /  16.2 °C 48.9 °F /  9.4 °C 30.14 in /  1020.5 hPa WSW 3.0 mph /  4.8 km/h 7.0 mph /  11.3 km/h 64 % 0.00 in /  0 mm
09:43 61.4 °F /  16.3 °C 48.3 °F /  9.1 °C 30.15 in /  1020.9 hPa WNW 2.4 mph /  3.9 km/h 5.0 mph /  8 km/h 62 % 0.00 in /  0 mm
09:48 61.6 °F /  16.4 °C 48.0 °F /  8.9 °C 30.14 in /  1020.5 hPa West 4.7 mph /  7.6 km/h 5.8 mph /  9.3 km/h 61 % 0.00 in /  0 mm
09:53 61.7 °F /  16.5 °C 47.2 °F /  8.4 °C 30.14 in /  1020.5 hPa North 2.3 mph /  3.7 km/h 12.7 mph /  20.4 km/h 59 % 0.00 in /  0 mm
09:58 62.1 °F /  16.7 °C 48.5 °F /  9.2 °C 30.14 in /  1020.5 hPa NNE 2.3 mph /  3.7 km/h 8.1 mph /  13 km/h 61 % 0.00 in /  0 mm
10:03 62.5 °F /  16.9 °C 49.3 °F /  9.6 °C 30.15 in /  1020.9 hPa WNW 2.9 mph /  4.7 km/h 5.8 mph /  9.3 km/h 62 % 0.00 in /  0 mm
10:08 62.9 °F /  17.2 °C 48.3 °F /  9.1 °C 30.14 in /  1020.5 hPa NW 1.8 mph /  2.9 km/h 8.1 mph /  13 km/h 59 % 0.00 in /  0 mm
10:14 63.2 °F /  17.3 °C 49.1 °F /  9.5 °C 30.15 in /  1020.9 hPa WNW 0.8 mph /  1.3 km/h 8.1 mph /  13 km/h 60 % 0.00 in /  0 mm
10:19 63.4 °F /  17.4 °C 48.4 °F /  9.1 °C 30.15 in /  1020.9 hPa NW 3.7 mph /  6 km/h 6.9 mph /  11.1 km/h 58 % 0.00 in /  0 mm
10:24 63.5 °F /  17.5 °C 47.5 °F /  8.6 °C 30.15 in /  1020.9 hPa NNW 4.1 mph /  6.6 km/h 8.1 mph /  13 km/h 56 % 0.00 in /  0 mm
10:29 63.5 °F /  17.5 °C 47.5 °F /  8.6 °C 30.15 in /  1020.9 hPa NW 1.7 mph /  2.7 km/h 5.8 mph /  9.3 km/h 56 % 0.00 in /  0 mm
10:34 63.6 °F /  17.6 °C 47.6 °F /  8.7 °C 30.14 in /  1020.5 hPa WNW 2.2 mph /  3.5 km/h 3.5 mph /  5.6 km/h 56 % 0.00 in /  0 mm
10:39 63.6 °F /  17.6 °C 48.5 °F /  9.2 °C 30.15 in /  1020.9 hPa NW 4.3 mph /  6.9 km/h 10.4 mph /  16.7 km/h 58 % 0.00 in /  0 mm
10:44 63.7 °F /  17.6 °C 48.6 °F /  9.2 °C 30.14 in /  1020.5 hPa WNW 2.9 mph /  4.7 km/h 9.2 mph /  14.8 km/h 58 % 0.00 in /  0 mm
10:49 63.7 °F /  17.6 °C 49.1 °F /  9.5 °C 30.14 in /  1020.5 hPa WNW 2.2 mph /  3.5 km/h 4.6 mph /  7.4 km/h 59 % 0.00 in /  0 mm
10:54 63.7 °F /  17.6 °C 48.6 °F /  9.2 °C 30.14 in /  1020.5 hPa WNW 3.1 mph /  5 km/h 5.8 mph /  9.3 km/h 58 % 0.00 in /  0 mm
10:59 63.8 °F /  17.7 °C 48.7 °F /  9.3 °C 30.14 in /  1020.5 hPa West 5.1 mph /  8.2 km/h 6.9 mph /  11.1 km/h 58 % 0.00 in /  0 mm
11:04 64.0 °F /  17.8 °C 48.9 °F /  9.4 °C 30.14 in /  1020.5 hPa WNW 3.8 mph /  6.1 km/h 6.9 mph /  11.1 km/h 58 % 0.00 in /  0 mm
11:09 64.2 °F /  17.9 °C 49.1 °F /  9.5 °C 30.14 in /  1020.5 hPa NW 2.8 mph /  4.5 km/h 5.8 mph /  9.3 km/h 58 % 0.00 in /  0 mm
11:14 64.5 °F /  18.1 °C 48.9 °F /  9.4 °C 30.14 in /  1020.5 hPa West 2.7 mph /  4.3 km/h 5.8 mph /  9.3 km/h 57 % 0.00 in /  0 mm
11:19 65.0 °F /  18.3 °C 49.4 °F /  9.7 °C 30.14 in /  1020.5 hPa West 3.3 mph /  5.3 km/h 4.6 mph /  7.4 km/h 57 % 0.00 in /  0 mm
11:24 65.9 °F /  18.8 °C 52.1 °F /  11.2 °C 30.13 in /  1020.2 hPa West 0.3 mph /  0.5 km/h 2.3 mph /  3.7 km/h 61 % 0.00 in /  0 mm
11:29 66.7 °F /  19.3 °C 50.5 °F /  10.3 °C 30.13 in /  1020.2 hPa WNW 2.4 mph /  3.9 km/h 3.5 mph /  5.6 km/h 56 % 0.00 in /  0 mm
11:34 67.4 °F /  19.7 °C 49.7 °F /  9.8 °C 30.13 in /  1020.2 hPa West 1.5 mph /  2.4 km/h 5.8 mph /  9.3 km/h 53 % 0.00 in /  0 mm
11:44 69.0 °F /  20.6 °C 50.6 °F /  10.3 °C 30.12 in /  1019.9 hPa WSW 3.5 mph /  5.6 km/h 6.9 mph /  11.1 km/h 52 % 0.00 in /  0 mm
11:49 69.5 °F /  20.8 °C 49.5 °F /  9.7 °C 30.12 in /  1019.9 hPa WNW 5.3 mph /  8.5 km/h 5.8 mph /  9.3 km/h 49 % 0.00 in /  0 mm
11:55 69.9 °F /  21.1 °C 49.9 °F /  9.9 °C 30.12 in /  1019.9 hPa SW 3.5 mph /  5.6 km/h 6.9 mph /  11.1 km/h 49 % 0.00 in /  0 mm
12:00 70.4 °F /  21.3 °C 50.3 °F /  10.2 °C 30.12 in /  1019.9 hPa SSW 4.2 mph /  6.8 km/h 7.0 mph /  11.3 km/h 49 % 0.00 in /  0 mm
12:05 70.7 °F /  21.5 °C 48.3 °F /  9.1 °C 30.11 in /  1019.5 hPa SSW 7.4 mph /  11.9 km/h 9.2 mph /  14.8 km/h 45 % 0.00 in /  0 mm
12:10 70.7 °F /  21.5 °C 47.7 °F /  8.7 °C 30.11 in /  1019.5 hPa WSW 4.8 mph /  7.7 km/h 6.9 mph /  11.1 km/h 44 % 0.00 in /  0 mm
12:15 70.9 °F /  21.6 °C 49.1 °F /  9.5 °C 30.11 in /  1019.5 hPa SW 2.6 mph /  4.2 km/h 5.8 mph /  9.3 km/h 46 % 0.00 in /  0 mm
12:20 71.1 °F /  21.7 °C 48.7 °F /  9.3 °C 30.11 in /  1019.5 hPa West 2.7 mph /  4.3 km/h 6.9 mph /  11.1 km/h 45 % 0.00 in /  0 mm
12:25 71.2 °F /  21.8 °C 47.6 °F /  8.7 °C 30.11 in /  1019.5 hPa WSW 1.9 mph /  3.1 km/h 4.6 mph /  7.4 km/h 43 % 0.00 in /  0 mm
12:30 71.3 °F /  21.8 °C 47.0 °F /  8.3 °C 30.11 in /  1019.5 hPa SW 6.0 mph /  9.7 km/h 10.4 mph /  16.7 km/h 42 % 0.00 in /  0 mm
12:35 71.2 °F /  21.8 °C 46.9 °F /  8.3 °C 30.11 in /  1019.5 hPa WSW 4.2 mph /  6.8 km/h 6.0 mph /  9.7 km/h 42 % 0.00 in /  0 mm
12:40 71.1 °F /  21.7 °C 48.1 °F /  8.9 °C 30.11 in /  1019.5 hPa West 2.6 mph /  4.2 km/h 4.0 mph /  6.4 km/h 44 % 0.00 in /  0 mm
12:45 71.1 °F /  21.7 °C 47.5 °F /  8.6 °C 30.11 in /  1019.5 hPa WSW 2.9 mph /  4.7 km/h 8.0 mph /  12.9 km/h 43 % 0.00 in /  0 mm
12:50 71.2 °F /  21.8 °C 45.6 °F /  7.6 °C 30.10 in /  1019.2 hPa West 2.7 mph /  4.3 km/h 10.4 mph /  16.7 km/h 40 % 0.00 in /  0 mm
12:55 71.3 °F /  21.8 °C 46.4 °F /  8 °C 30.10 in /  1019.2 hPa WNW 3.6 mph /  5.8 km/h 10.4 mph /  16.7 km/h 41 % 0.00 in /  0 mm
13:00 71.5 °F /  21.9 °C 49.0 °F /  9.4 °C 30.10 in /  1019.2 hPa West 1.5 mph /  2.4 km/h 4.0 mph /  6.4 km/h 45 % 0.00 in /  0 mm
13:05 71.9 °F /  22.2 °C 46.3 °F /  7.9 °C 30.10 in /  1019.2 hPa WSW 0.8 mph /  1.3 km/h 3.5 mph /  5.6 km/h 40 % 0.00 in /  0 mm
13:10 72.2 °F /  22.3 °C 47.8 °F /  8.8 °C 30.10 in /  1019.2 hPa West 2.3 mph /  3.7 km/h 3.5 mph /  5.6 km/h 42 % 0.00 in /  0 mm
13:15 72.5 °F /  22.5 °C 48.7 °F /  9.3 °C 30.10 in /  1019.2 hPa WNW 3.3 mph /  5.3 km/h 5.8 mph /  9.3 km/h 43 % 0.00 in /  0 mm
13:20 72.7 °F /  22.6 °C 44.9 °F /  7.2 °C 30.12 in /  1019.9 hPa West 5.5 mph /  8.9 km/h 10.4 mph /  16.7 km/h 37 % 0.00 in /  0 mm
13:25 72.8 °F /  22.7 °C 45.7 °F /  7.6 °C 30.09 in /  1018.8 hPa West 1.9 mph /  3.1 km/h 3.5 mph /  5.6 km/h 38 % 0.00 in /  0 mm
13:28 72.8 °F /  22.7 °C 44.3 °F /  6.8 °C 30.09 in /  1018.8 hPa WNW 3.5 mph /  5.6 km/h 8.1 mph /  13 km/h 36 % 0.00 in /  0 mm
13:33 73.0 °F /  22.8 °C 44.5 °F /  6.9 °C 30.09 in /  1018.8 hPa WSW 5.4 mph /  8.7 km/h 8.1 mph /  13 km/h 36 % 0.00 in /  0 mm
13:38 73.0 °F /  22.8 °C 43.0 °F /  6.1 °C 30.09 in /  1018.8 hPa West 0.3 mph /  0.5 km/h 5.8 mph /  9.3 km/h 34 % 0.00 in /  0 mm
13:43 73.2 °F /  22.9 °C 46.8 °F /  8.2 °C 30.08 in /  1018.5 hPa NW 3.1 mph /  5 km/h 8.0 mph /  12.9 km/h 39 % 0.00 in /  0 mm
13:48 73.4 °F /  23 °C 46.9 °F /  8.3 °C 30.08 in /  1018.5 hPa West 1.1 mph /  1.8 km/h 6.9 mph /  11.1 km/h 39 % 0.00 in /  0 mm
13:53 73.4 °F /  23 °C 42.5 °F /  5.8 °C 30.08 in /  1018.5 hPa West 5.7 mph /  9.2 km/h 10.4 mph /  16.7 km/h 33 % 0.00 in /  0 mm
13:58 73.4 °F /  23 °C 43.3 °F /  6.3 °C 30.08 in /  1018.5 hPa West 4.9 mph /  7.9 km/h 9.2 mph /  14.8 km/h 34 % 0.00 in /  0 mm
14:03 73.4 °F /  23 °C 44.8 °F /  7.1 °C 30.08 in /  1018.5 hPa West 2.9 mph /  4.7 km/h 6.9 mph /  11.1 km/h 36 % 0.00 in /  0 mm
14:08 73.5 °F /  23.1 °C 43.4 °F /  6.3 °C 30.08 in /  1018.5 hPa WSW 5.6 mph /  9 km/h 10.4 mph /  16.7 km/h 34 % 0.00 in /  0 mm
14:13 73.5 °F /  23.1 °C 43.4 °F /  6.3 °C 30.08 in /  1018.5 hPa WNW 4.7 mph /  7.6 km/h 9.2 mph /  14.8 km/h 34 % 0.00 in /  0 mm
14:18 73.5 °F /  23.1 °C 42.6 °F /  5.9 °C 30.08 in /  1018.5 hPa NW 2.5 mph /  4 km/h 5.0 mph /  8 km/h 33 % 0.00 in /  0 mm
14:23 73.4 °F /  23 °C 42.5 °F /  5.8 °C 30.08 in /  1018.5 hPa SW 5.6 mph /  9 km/h 10.4 mph /  16.7 km/h 33 % 0.00 in /  0 mm
14:28 73.4 °F /  23 °C 41.7 °F /  5.4 °C 30.08 in /  1018.5 hPa WSW 4.7 mph /  7.6 km/h 8.1 mph /  13 km/h 32 % 0.00 in /  0 mm
14:33 73.3 °F /  22.9 °C 42.4 °F /  5.8 °C 30.07 in /  1018.2 hPa North 4.1 mph /  6.6 km/h 10.4 mph /  16.7 km/h 33 % 0.00 in /  0 mm
14:38 73.3 °F /  22.9 °C 43.2 °F /  6.2 °C 30.08 in /  1018.5 hPa WNW 3.7 mph /  6 km/h 5.8 mph /  9.3 km/h 34 % 0.00 in /  0 mm
14:43 73.3 °F /  22.9 °C 42.4 °F /  5.8 °C 30.10 in /  1019.2 hPa West 3.2 mph /  5.1 km/h 8.1 mph /  13 km/h 33 % 0.00 in /  0 mm
14:48 73.3 °F /  22.9 °C 43.2 °F /  6.2 °C 30.11 in /  1019.5 hPa WSW 6.1 mph /  9.8 km/h 9.0 mph /  14.5 km/h 34 % 0.00 in /  0 mm
14:53 73.2 °F /  22.9 °C 42.4 °F /  5.8 °C 30.10 in /  1019.2 hPa WSW 2.0 mph /  3.2 km/h 5.8 mph /  9.3 km/h 33 % 0.00 in /  0 mm
14:58 73.2 °F /  22.9 °C 43.9 °F /  6.6 °C 30.10 in /  1019.2 hPa West 4.1 mph /  6.6 km/h 5.8 mph /  9.3 km/h 35 % 0.00 in /  0 mm
15:03 73.1 °F /  22.8 °C 43.1 °F /  6.2 °C 30.10 in /  1019.2 hPa West 1.8 mph /  2.9 km/h 11.5 mph /  18.5 km/h 34 % 0.00 in /  0 mm
15:08 73.0 °F /  22.8 °C 43.7 °F /  6.5 °C 30.10 in /  1019.2 hPa NW 2.8 mph /  4.5 km/h 8.1 mph /  13 km/h 35 % 0.00 in /  0 mm
15:13 72.7 °F /  22.6 °C 43.5 °F /  6.4 °C 30.10 in /  1019.2 hPa WSW 5.2 mph /  8.4 km/h 5.8 mph /  9.3 km/h 35 % 0.00 in /  0 mm
15:18 72.6 °F /  22.6 °C 44.1 °F /  6.7 °C 30.10 in /  1019.2 hPa WNW 3.9 mph /  6.3 km/h 7.0 mph /  11.3 km/h 36 % 0.00 in /  0 mm
15:23 72.2 °F /  22.3 °C 43.8 °F /  6.6 °C 30.10 in /  1019.2 hPa NW 3.5 mph /  5.6 km/h 6.9 mph /  11.1 km/h 36 % 0.00 in /  0 mm
15:28 72.0 °F /  22.2 °C 44.3 °F /  6.8 °C 30.10 in /  1019.2 hPa SW 3.9 mph /  6.3 km/h 5.8 mph /  9.3 km/h 37 % 0.00 in /  0 mm
15:33 71.8 °F /  22.1 °C 43.4 °F /  6.3 °C 30.10 in /  1019.2 hPa West 2.1 mph /  3.4 km/h 6.9 mph /  11.1 km/h 36 % 0.00 in /  0 mm
15:38 71.6 °F /  22 °C 43.2 °F /  6.2 °C 30.10 in /  1019.2 hPa WSW 5.1 mph /  8.2 km/h 7.0 mph /  11.3 km/h 36 % 0.00 in /  0 mm
15:44 71.4 °F /  21.9 °C 43.8 °F /  6.6 °C 30.10 in /  1019.2 hPa West 3.0 mph /  4.8 km/h 3.5 mph /  5.6 km/h 37 % 0.00 in /  0 mm
15:49 71.2 °F /  21.8 °C 43.6 °F /  6.4 °C 30.10 in /  1019.2 hPa WSW 7.2 mph /  11.6 km/h 8.0 mph /  12.9 km/h 37 % 0.00 in /  0 mm
15:54 71.0 °F /  21.7 °C 43.4 °F /  6.3 °C 30.10 in /  1019.2 hPa WSW 5.1 mph /  8.2 km/h 8.1 mph /  13 km/h 37 % 0.00 in /  0 mm
15:59 70.9 °F /  21.6 °C 44.0 °F /  6.7 °C 30.10 in /  1019.2 hPa West 3.9 mph /  6.3 km/h 8.1 mph /  13 km/h 38 % 0.00 in /  0 mm
16:04 70.8 °F /  21.6 °C 45.3 °F /  7.4 °C 30.10 in /  1019.2 hPa WNW 5.8 mph /  9.3 km/h 11.5 mph /  18.5 km/h 40 % 0.00 in /  0 mm
16:09 70.6 °F /  21.4 °C 44.4 °F /  6.9 °C 30.10 in /  1019.2 hPa WSW 0.8 mph /  1.3 km/h 3.5 mph /  5.6 km/h 39 % 0.00 in /  0 mm
16:14 70.5 °F /  21.4 °C 44.3 °F /  6.8 °C 30.10 in /  1019.2 hPa WNW 3.3 mph /  5.3 km/h 5.8 mph /  9.3 km/h 39 % 0.00 in /  0 mm
16:19 70.4 °F /  21.3 °C 44.9 °F /  7.2 °C 30.10 in /  1019.2 hPa West 3.0 mph /  4.8 km/h 4.6 mph /  7.4 km/h 40 % 0.00 in /  0 mm
16:24 70.4 °F /  21.3 °C 44.9 °F /  7.2 °C 30.10 in /  1019.2 hPa SW 2.0 mph /  3.2 km/h 4.0 mph /  6.4 km/h 40 % 0.00 in /  0 mm
16:29 70.3 °F /  21.3 °C 45.5 °F /  7.5 °C 30.10 in /  1019.2 hPa WSW 2.8 mph /  4.5 km/h 4.6 mph /  7.4 km/h 41 % 0.00 in /  0 mm
16:34 70.3 °F /  21.3 °C 45.5 °F /  7.5 °C 30.10 in /  1019.2 hPa West 2.4 mph /  3.9 km/h 5.8 mph /  9.3 km/h 41 % 0.00 in /  0 mm
16:35 70.2 °F /  21.2 °C 45.4 °F /  7.4 °C 30.10 in /  1019.2 hPa WSW 3.3 mph /  5.3 km/h 4.0 mph /  6.4 km/h 41 % 0.00 in /  0 mm
16:40 70.2 °F /  21.2 °C 45.4 °F /  7.4 °C 30.10 in /  1019.2 hPa West 2.7 mph /  4.3 km/h 5.0 mph /  8 km/h 41 % 0.00 in /  0 mm
16:45 70.1 °F /  21.2 °C 45.3 °F /  7.4 °C 30.10 in /  1019.2 hPa WSW 2.9 mph /  4.7 km/h 3.5 mph /  5.6 km/h 41 % 0.00 in /  0 mm
16:50 70.0 °F /  21.1 °C 44.6 °F /  7 °C 30.10 in /  1019.2 hPa WSW 2.3 mph /  3.7 km/h 5.8 mph /  9.3 km/h 40 % 0.00 in /  0 mm
16:55 69.9 °F /  21.1 °C 45.1 °F /  7.3 °C 30.10 in /  1019.2 hPa WSW 3.3 mph /  5.3 km/h 6.0 mph /  9.7 km/h 41 % 0.00 in /  0 mm
17:00 69.8 °F /  21 °C 45.0 °F /  7.2 °C 30.10 in /  1019.2 hPa West 2.5 mph /  4 km/h 5.8 mph /  9.3 km/h 41 % 0.00 in /  0 mm
17:05 69.7 °F /  20.9 °C 45.6 °F /  7.6 °C 30.10 in /  1019.2 hPa Calm   2.3 mph /  3.7 km/h 42 % 0.00 in /  0 mm
17:10 69.7 °F /  20.9 °C 45.6 °F /  7.6 °C 30.10 in /  1019.2 hPa WNW 1.4 mph /  2.3 km/h 3.0 mph /  4.8 km/h 42 % 0.00 in /  0 mm
17:15 69.5 °F /  20.8 °C 46.6 °F /  8.1 °C 30.08 in /  1018.5 hPa WSW 0.8 mph /  1.3 km/h 3.5 mph /  5.6 km/h 44 % 0.00 in /  0 mm
17:20 69.4 °F /  20.8 °C 46.5 °F /  8.1 °C 30.09 in /  1018.8 hPa Calm   2.3 mph /  3.7 km/h 44 % 0.00 in /  0 mm
17:25 69.3 °F /  20.7 °C 47.0 °F /  8.3 °C 30.08 in /  1018.5 hPa WNW 0.1 mph /  0.2 km/h 2.3 mph /  3.7 km/h 45 % 0.00 in /  0 mm
17:30 69.2 °F /  20.7 °C 46.9 °F /  8.3 °C 30.09 in /  1018.8 hPa WNW 0.1 mph /  0.2 km/h   45 % 0.00 in /  0 mm
17:36 69.0 °F /  20.6 °C 46.8 °F /  8.2 °C 30.08 in /  1018.5 hPa WNW 0.1 mph /  0.2 km/h 1.2 mph /  1.9 km/h 45 % 0.00 in /  0 mm
17:41 68.9 °F /  20.5 °C 46.6 °F /  8.1 °C 30.09 in /  1018.8 hPa WNW 1.0 mph /  1.6 km/h 3.0 mph /  4.8 km/h 45 % 0.00 in /  0 mm
17:46 68.7 °F /  20.4 °C 47.1 °F /  8.4 °C 30.11 in /  1019.5 hPa Calm   2.0 mph /  3.2 km/h 46 % 0.00 in /  0 mm
17:51 68.4 °F /  20.2 °C 47.4 °F /  8.6 °C 30.09 in /  1018.8 hPa Calm   1.2 mph /  1.9 km/h 47 % 0.00 in /  0 mm
17:55 68.2 °F /  20.1 °C 47.2 °F /  8.4 °C 30.10 in /  1019.2 hPa WNW 0.1 mph /  0.2 km/h   47 % 0.00 in /  0 mm
18:01 67.9 °F /  19.9 °C 47.5 °F /  8.6 °C 30.09 in /  1018.8 hPa West 0.6 mph /  1 km/h 1.2 mph /  1.9 km/h 48 % 0.00 in /  0 mm
18:06 67.6 °F /  19.8 °C 48.3 °F /  9.1 °C 30.10 in /  1019.2 hPa Calm   3.0 mph /  4.8 km/h 50 % 0.00 in /  0 mm
18:11 67.2 °F /  19.6 °C 50.0 °F /  10 °C 30.10 in /  1019.2 hPa Calm     54 % 0.00 in /  0 mm
18:15 66.6 °F /  19.2 °C 50.4 °F /  10.2 °C 30.10 in /  1019.2 hPa Calm   1.2 mph /  1.9 km/h 56 % 0.00 in /  0 mm
18:21 66.1 °F /  18.9 °C 50.4 °F /  10.2 °C 30.10 in /  1019.2 hPa Calm     57 % 0.00 in /  0 mm
18:26 65.7 °F /  18.7 °C 50.5 °F /  10.3 °C 30.11 in /  1019.5 hPa Calm     58 % 0.00 in /  0 mm
18:31 65.2 °F /  18.4 °C 50.1 °F /  10.1 °C 30.10 in /  1019.2 hPa Calm   1.0 mph /  1.6 km/h 58 % 0.00 in /  0 mm
18:36 64.9 °F /  18.3 °C 49.8 °F /  9.9 °C 30.11 in /  1019.5 hPa Calm     58 % 0.00 in /  0 mm
18:41 64.5 °F /  18.1 °C 49.4 °F /  9.7 °C 30.11 in /  1019.5 hPa West 0.2 mph /  0.3 km/h   58 % 0.00 in /  0 mm
18:46 64.2 °F /  17.9 °C 50.0 °F /  10 °C 30.11 in /  1019.5 hPa West 1.0 mph /  1.6 km/h 2.0 mph /  3.2 km/h 60 % 0.00 in /  0 mm
18:51 63.8 °F /  17.7 °C 51.0 °F /  10.6 °C 30.11 in /  1019.5 hPa Calm   2.0 mph /  3.2 km/h 63 % 0.00 in /  0 mm
18:56 63.5 °F /  17.5 °C 51.1 °F /  10.6 °C 30.12 in /  1019.9 hPa Calm   3.0 mph /  4.8 km/h 64 % 0.00 in /  0 mm
19:01 63.2 °F /  17.3 °C 51.2 °F /  10.7 °C 30.12 in /  1019.9 hPa WNW 0.2 mph /  0.3 km/h 1.2 mph /  1.9 km/h 65 % 0.00 in /  0 mm
19:06 62.9 °F /  17.2 °C 51.0 °F /  10.6 °C 30.13 in /  1020.2 hPa Calm   2.0 mph /  3.2 km/h 65 % 0.00 in /  0 mm
19:11 62.8 °F /  17.1 °C 51.3 °F /  10.7 °C 30.13 in /  1020.2 hPa Calm   2.0 mph /  3.2 km/h 66 % 0.00 in /  0 mm
19:16 62.6 °F /  17 °C 51.1 °F /  10.6 °C 30.13 in /  1020.2 hPa Calm   2.0 mph /  3.2 km/h 66 % 0.00 in /  0 mm
19:21 62.5 °F /  16.9 °C 51.4 °F /  10.8 °C 30.13 in /  1020.2 hPa NW 1.0 mph /  1.6 km/h 2.0 mph /  3.2 km/h 67 % 0.00 in /  0 mm
19:26 62.2 °F /  16.8 °C 51.1 °F /  10.6 °C 30.14 in /  1020.5 hPa WNW 1.0 mph /  1.6 km/h 2.3 mph /  3.7 km/h 67 % 0.00 in /  0 mm
19:31 62.0 °F /  16.7 °C 50.9 °F /  10.5 °C 30.14 in /  1020.5 hPa Calm   1.0 mph /  1.6 km/h 67 % 0.00 in /  0 mm
19:36 61.8 °F /  16.6 °C 50.7 °F /  10.4 °C 30.14 in /  1020.5 hPa Calm   2.0 mph /  3.2 km/h 67 % 0.00 in /  0 mm
19:41 61.6 °F /  16.4 °C 50.9 °F /  10.5 °C 30.14 in /  1020.5 hPa Calm     68 % 0.00 in /  0 mm
19:46 61.4 °F /  16.3 °C 50.3 °F /  10.2 °C 30.13 in /  1020.2 hPa Calm   2.0 mph /  3.2 km/h 67 % 0.00 in /  0 mm
19:51 61.2 °F /  16.2 °C 49.8 °F /  9.9 °C 30.13 in /  1020.2 hPa Calm   2.0 mph /  3.2 km/h 66 % 0.00 in /  0 mm
19:56 61.1 °F /  16.2 °C 49.7 °F /  9.8 °C 30.13 in /  1020.2 hPa Calm   1.0 mph /  1.6 km/h 66 % 0.00 in /  0 mm
20:01 60.9 °F /  16.1 °C 50.3 °F /  10.2 °C 30.14 in /  1020.5 hPa NW 0.3 mph /  0.5 km/h 1.0 mph /  1.6 km/h 68 % 0.00 in /  0 mm
20:06 60.7 °F /  15.9 °C 50.5 °F /  10.3 °C 30.14 in /  1020.5 hPa NW 0.9 mph /  1.4 km/h 1.2 mph /  1.9 km/h 69 % 0.00 in /  0 mm
20:11 60.4 °F /  15.8 °C 50.6 °F /  10.3 °C 30.14 in /  1020.5 hPa NW 1.3 mph /  2.1 km/h 2.3 mph /  3.7 km/h 70 % 0.00 in /  0 mm
20:16 60.1 °F /  15.6 °C 50.3 °F /  10.2 °C 30.14 in /  1020.5 hPa Calm     70 % 0.00 in /  0 mm
20:21 59.9 °F /  15.5 °C 49.7 °F /  9.8 °C 30.13 in /  1020.2 hPa Calm     69 % 0.00 in /  0 mm
20:26 59.6 °F /  15.3 °C 49.8 °F /  9.9 °C 30.14 in /  1020.5 hPa Calm     70 % 0.00 in /  0 mm
20:31 59.3 °F /  15.2 °C 49.5 °F /  9.7 °C 30.14 in /  1020.5 hPa Calm     70 % 0.00 in /  0 mm
20:36 59.1 °F /  15.1 °C 49.3 °F /  9.6 °C 30.14 in /  1020.5 hPa NW 0.4 mph /  0.6 km/h 1.2 mph /  1.9 km/h 70 % 0.00 in /  0 mm
20:41 58.9 °F /  14.9 °C 49.5 °F /  9.7 °C 30.14 in /  1020.5 hPa Calm     71 % 0.00 in /  0 mm
20:46 58.5 °F /  14.7 °C 49.5 °F /  9.7 °C 30.14 in /  1020.5 hPa NW 0.9 mph /  1.4 km/h 2.0 mph /  3.2 km/h 72 % 0.00 in /  0 mm
20:51 58.3 °F /  14.6 °C 49.7 °F /  9.8 °C 30.14 in /  1020.5 hPa NW 0.5 mph /  0.8 km/h 1.2 mph /  1.9 km/h 73 % 0.00 in /  0 mm
20:52 58.3 °F /  14.6 °C 49.7 °F /  9.8 °C 30.14 in /  1020.5 hPa NW 0.5 mph /  0.8 km/h 1.2 mph /  1.9 km/h 73 % 0.00 in /  0 mm
20:57 58.1 °F /  14.5 °C 49.9 °F /  9.9 °C 30.14 in /  1020.5 hPa Calm     74 % 0.00 in /  0 mm
21:02 57.8 °F /  14.3 °C 49.9 °F /  9.9 °C 30.14 in /  1020.5 hPa Calm     75 % 0.00 in /  0 mm
21:07 57.6 °F /  14.2 °C 49.7 °F /  9.8 °C 30.14 in /  1020.5 hPa Calm     75 % 0.00 in /  0 mm
21:12 57.3 °F /  14.1 °C 49.8 °F /  9.9 °C 30.15 in /  1020.9 hPa Calm     76 % 0.00 in /  0 mm
21:17 57.1 °F /  13.9 °C 49.6 °F /  9.8 °C 30.15 in /  1020.9 hPa Calm   1.2 mph /  1.9 km/h 76 % 0.00 in /  0 mm
21:22 56.8 °F /  13.8 °C 49.3 °F /  9.6 °C 30.15 in /  1020.9 hPa NW 0.5 mph /  0.8 km/h 1.2 mph /  1.9 km/h 76 % 0.00 in /  0 mm
21:27 56.6 °F /  13.7 °C 49.1 °F /  9.5 °C 30.15 in /  1020.9 hPa Calm     76 % 0.00 in /  0 mm
21:32 56.3 °F /  13.5 °C 49.2 °F /  9.6 °C 30.15 in /  1020.9 hPa NW 0.2 mph /  0.3 km/h 1.0 mph /  1.6 km/h 77 % 0.00 in /  0 mm
21:37 56.1 °F /  13.4 °C 49.0 °F /  9.4 °C 30.15 in /  1020.9 hPa Calm     77 % 0.00 in /  0 mm
21:42 55.9 °F /  13.3 °C 48.8 °F /  9.3 °C 30.16 in /  1021.2 hPa Calm     77 % 0.00 in /  0 mm
21:47 55.7 °F /  13.2 °C 48.9 °F /  9.4 °C 30.16 in /  1021.2 hPa Calm     78 % 0.00 in /  0 mm
21:53 55.6 °F /  13.1 °C 48.8 °F /  9.3 °C 30.16 in /  1021.2 hPa Calm   1.2 mph /  1.9 km/h 78 % 0.00 in /  0 mm
21:58 55.4 °F /  13 °C 48.7 °F /  9.3 °C 30.16 in /  1021.2 hPa NW 0.5 mph /  0.8 km/h 1.2 mph /  1.9 km/h 78 % 0.00 in /  0 mm
22:03 55.3 °F /  12.9 °C 48.9 °F /  9.4 °C 30.16 in /  1021.2 hPa NW 0.1 mph /  0.2 km/h 1.2 mph /  1.9 km/h 79 % 0.00 in /  0 mm
22:07 55.0 °F /  12.8 °C 48.3 °F /  9.1 °C 30.16 in /  1021.2 hPa NW 0.5 mph /  0.8 km/h 1.2 mph /  1.9 km/h 78 % 0.00 in /  0 mm
22:13 54.9 °F /  12.7 °C 48.2 °F /  9 °C 30.17 in /  1021.6 hPa Calm     78 % 0.00 in /  0 mm
22:18 54.7 °F /  12.6 °C 48.0 °F /  8.9 °C 30.17 in /  1021.6 hPa Calm     78 % 0.00 in /  0 mm
22:23 54.6 °F /  12.6 °C 48.2 °F /  9 °C 30.17 in /  1021.6 hPa NW 0.7 mph /  1.1 km/h 1.2 mph /  1.9 km/h 79 % 0.00 in /  0 mm
22:28 54.5 °F /  12.5 °C 48.1 °F /  8.9 °C 30.17 in /  1021.6 hPa NW 0.8 mph /  1.3 km/h 2.3 mph /  3.7 km/h 79 % 0.00 in /  0 mm
22:33 54.4 °F /  12.4 °C 48.0 °F /  8.9 °C 30.18 in /  1021.9 hPa WNW 0.9 mph /  1.4 km/h 3.5 mph /  5.6 km/h 79 % 0.00 in /  0 mm
22:38 54.3 °F /  12.4 °C 48.3 °F /  9.1 °C 30.17 in /  1021.6 hPa SW 0.1 mph /  0.2 km/h 1.2 mph /  1.9 km/h 80 % 0.00 in /  0 mm
22:43 54.2 °F /  12.3 °C 48.5 °F /  9.2 °C 30.18 in /  1021.9 hPa SW 1.0 mph /  1.6 km/h 2.3 mph /  3.7 km/h 81 % 0.00 in /  0 mm
22:48 54.1 °F /  12.3 °C 48.4 °F /  9.1 °C 30.20 in /  1022.6 hPa Calm     81 % 0.00 in /  0 mm
22:53 54.1 °F /  12.3 °C 48.4 °F /  9.1 °C 30.18 in /  1021.9 hPa Calm     81 % 0.00 in /  0 mm
22:58 54.1 °F /  12.3 °C 48.7 °F /  9.3 °C 30.18 in /  1021.9 hPa SW 0.3 mph /  0.5 km/h 1.2 mph /  1.9 km/h 82 % 0.00 in /  0 mm
23:03 54.0 °F /  12.2 °C 48.6 °F /  9.2 °C 30.18 in /  1021.9 hPa SW 0.8 mph /  1.3 km/h 2.3 mph /  3.7 km/h 82 % 0.00 in /  0 mm
23:08 54.0 °F /  12.2 °C 48.6 °F /  9.2 °C 30.18 in /  1021.9 hPa SW 0.2 mph /  0.3 km/h 1.0 mph /  1.6 km/h 82 % 0.00 in /  0 mm
23:13 53.9 °F /  12.2 °C 48.2 °F /  9 °C 30.18 in /  1021.9 hPa Calm   1.2 mph /  1.9 km/h 81 % 0.00 in /  0 mm
23:19 53.9 °F /  12.2 °C 47.9 °F /  8.8 °C 30.19 in /  1022.2 hPa Calm   1.2 mph /  1.9 km/h 80 % 0.00 in /  0 mm
23:20 53.9 °F /  12.2 °C 47.9 °F /  8.8 °C 30.18 in /  1021.9 hPa Calm     80 % 0.00 in /  0 mm
23:21 54.0 °F /  12.2 °C 48.0 °F /  8.9 °C 30.19 in /  1022.2 hPa Calm   1.2 mph /  1.9 km/h 80 % 0.00 in /  0 mm
23:25 53.9 °F /  12.2 °C 47.9 °F /  8.8 °C 30.18 in /  1021.9 hPa WSW 1.4 mph /  2.3 km/h 2.3 mph /  3.7 km/h 80 % 0.00 in /  0 mm
23:29 53.9 °F /  12.2 °C 47.5 °F /  8.6 °C 29.96 in /  1014.4 hPa West 1.5 mph /  2.4 km/h 3.5 mph /  5.6 km/h 79 % 0.00 in /  0 mm
23:30 54.0 °F /  12.2 °C 47.6 °F /  8.7 °C 30.19 in /  1022.2 hPa West 0.5 mph /  0.8 km/h 3.5 mph /  5.6 km/h 79 % 0.00 in /  0 mm
23:35 54.1 °F /  12.3 °C 47.7 °F /  8.7 °C 30.18 in /  1021.9 hPa WSW 1.2 mph /  1.9 km/h 2.3 mph /  3.7 km/h 79 % 0.00 in /  0 mm
23:40 54.2 °F /  12.3 °C 47.8 °F /  8.8 °C 30.19 in /  1022.2 hPa Calm     79 % 0.00 in /  0 mm
23:45 54.4 °F /  12.4 °C 48.0 °F /  8.9 °C 30.19 in /  1022.2 hPa WSW 0.4 mph /  0.6 km/h 1.2 mph /  1.9 km/h 79 % 0.00 in /  0 mm
23:50 54.4 °F /  12.4 °C 48.0 °F /  8.9 °C 30.19 in /  1022.2 hPa Calm     79 % 0.00 in /  0 mm
23:55 54.5 °F /  12.5 °C 48.1 °F /  8.9 °C 30.19 in /  1022.2 hPa Calm     79 % 0.00 in /  0 mm
Crab Meadow Weather
Compliments of Weather Underground - 3 mb

Script developed by  Jim McMurry - jmcmurry@mwt.net Adapted for the template by  Wim van der Kuil - Leuven-Template.eu

Astronomy: The rings of Saturn are made of ice and rock.